| time (UTC) | temp F | wind direction | speed MPH | gust MPH | rain 1hr in | rain 24hr in | rain mn in | humidity % | barometer mb |
| 20260901201029 | 94 | 0.0 | 0.0 | 0.00 | 0.00 | 0.00 | 60 | 1013.7 | |
| 20260901200029 | 94 | 0.0 | 0.0 | 0.00 | 0.00 | 0.00 | 59 | 1013.7 | |
| 20260901195029 | 94 | 0.0 | 0.0 | 0.00 | 0.00 | 0.00 | 62 | 1013.8 | |
| 20260901194029 | 95 | 0.0 | 0.0 | 0.00 | 0.00 | 0.00 | 63 | 1014.0 | |
| 20260901193052 | 95 | 0.0 | 0.0 | 0.00 | 0.00 | 0.00 | 59 | 1014.2 | |
| 20260901192030 | 95 | 0.0 | 0.0 | 0.00 | 0.00 | 0.00 | 58 | 1014.3 | |
| 20260901191029 | 95 | 0.0 | 0.0 | 0.00 | 0.00 | 0.00 | 59 | 1014.3 | |
| 20260901190029 | 95 | 0.0 | 0.0 | 0.00 | 0.00 | 0.00 | 60 | 1014.3 | |
| 20260901185029 | 95 | 0.0 | 0.0 | 0.00 | 0.00 | 0.00 | 60 | 1014.3 | |
| 20260901184049 | 95 | 0.0 | 0.0 | 0.00 | 0.00 | 0.00 | 60 | 1014.3 | |
| 20260901183029 | 95 | 0.0 | 0.0 | 0.00 | 0.00 | 0.00 | 61 | 1014.3 | |
| 20260901182029 | 95 | 0.0 | 0.0 | 0.00 | 0.00 | 0.00 | 61 | 1014.3 | |
| 20260901181029 | 95 | 0.0 | 0.0 | 0.00 | 0.00 | 0.00 | 59 | 1014.5 | |
| 20260901180029 | 95 | 0.0 | 0.0 | 0.00 | 0.00 | 0.00 | 61 | 1014.4 | |
| 20260901175030 | 94 | 0.0 | 0.0 | 0.00 | 0.00 | 0.00 | 61 | 1014.4 | |
| 20260901174028 | 94 | 0.0 | 0.0 | 0.00 | 0.00 | 0.00 | 60 | 1014.5 | |
| 20260901173049 | 95 | 0.0 | 0.0 | 0.00 | 0.00 | 0.00 | 62 | 1014.6 | |
| 20260901172030 | 95 | 0.0 | 0.0 | 0.00 | 0.00 | 0.00 | 63 | 1014.5 | |
| 20260901171029 | 95 | 0.0 | 0.0 | 0.00 | 0.00 | 0.00 | 59 | 1014.4 | |
| 20260901170029 | 94 | 0.0 | 0.0 | 0.00 | 0.00 | 0.00 | 63 | 1014.5 | |
| 20260901165110 | 94 | 0.0 | 0.0 | 0.00 | 0.00 | 0.00 | 64 | 1014.7 | |
| 20260901164029 | 94 | 0.0 | 0.0 | 0.00 | 0.00 | 0.00 | 62 | 1014.8 | |
| 20260901163029 | 94 | 0.0 | 0.0 | 0.00 | 0.00 | 0.00 | 63 | 1015.1 | |
| 20260901162029 | 93 | 0.0 | 0.0 | 0.00 | 0.00 | 0.00 | 64 | 1015.1 | |
| 20260901161110 | 92 | 0.0 | 0.0 | 0.00 | 0.00 | 0.00 | 67 | 1015.2 | |
| 20260901160029 | 93 | 0.0 | 0.0 | 0.00 | 0.00 | 0.00 | 61 | 1015.3 | |
| 20260901155049 | 92 | 0.0 | 0.0 | 0.00 | 0.00 | 0.00 | 68 | 1015.3 | |
| 20260901154029 | 91 | 0.0 | 0.0 | 0.00 | 0.00 | 0.00 | 65 | 1015.5 | |
| 20260901153029 | 90 | 0.0 | 0.0 | 0.00 | 0.00 | 0.00 | 74 | 1015.5 | |
| 20260901152134 | 90 | 0.0 | 0.0 | 0.00 | 0.00 | 0.00 | 73 | 1015.8 | |
| 20260901151029 | 89 | 0.0 | 0.0 | 0.00 | 0.00 | 0.00 | 73 | 1015.9 | |
| 20260901150028 | 90 | 0.0 | 0.0 | 0.00 | 0.00 | 0.00 | 69 | 1015.9 | |
| 20260901145029 | 89 | 0.0 | 0.0 | 0.00 | 0.00 | 0.00 | 73 | 1015.9 | |
| 20260901144028 | 89 | 0.0 | 0.0 | 0.00 | 0.00 | 0.00 | 75 | 1016.0 | |
| 20260901143029 | 88 | 0.0 | 0.0 | 0.00 | 0.00 | 0.00 | 74 | 1016.0 | |
| 20260901142029 | 88 | 0.0 | 0.0 | 0.00 | 0.00 | 0.00 | 76 | 1015.9 | |
| 20260901141029 | 86 | 0.0 | 0.0 | 0.00 | 0.00 | 0.00 | 81 | 1015.8 | |
| 20260901140049 | 84 | 0.0 | 0.0 | 0.00 | 0.00 | 0.00 | 83 | 1015.8 | |
| 20260901135029 | 82 | 0.0 | 0.0 | 0.00 | 0.00 | 0.00 | 86 | 1015.9 | |
| 20260901134030 | 80 | 0.0 | 0.0 | 0.00 | 0.00 | 0.00 | 90 | 1016.0 | |
| 20260901133028 | 79 | 0.0 | 0.0 | 0.00 | 0.00 | 0.00 | 92 | 1016.2 | |
| 20260901132029 | 78 | 0.0 | 0.0 | 0.00 | 0.00 | 0.00 | 91 | 1016.2 | |
| 20260901131029 | 77 | 0.0 | 0.0 | 0.00 | 0.00 | 0.00 | 90 | 1016.2 | |
| 20260901130029 | 77 | 0.0 | 0.0 | 0.00 | 0.00 | 0.00 | 88 | 1016.2 | |
| 20260901125109 | 77 | 0.0 | 0.0 | 0.00 | 0.00 | 0.00 | 83 | 1016.2 | |
| 20260901124028 | 76 | 0.0 | 0.0 | 0.00 | 0.00 | 0.00 | 75 | 1016.3 | |
| 20260901123028 | 76 | 0.0 | 0.0 | 0.00 | 0.00 | 0.00 | 67 | 1016.1 | |
| 20260901122048 | 75 | 0.0 | 0.0 | 0.00 | 0.00 | 0.00 | 56 | 1016.1 | |
| 20260901121028 | 74 | 0.0 | 0.0 | 0.00 | 0.00 | 0.00 | 51 | 1016.1 | |
| 20260901120029 | 74 | 0.0 | 0.0 | 0.00 | 0.00 | 0.00 | 48 | 1015.9 | |
| 20260901115028 | 74 | 0.0 | 0.0 | 0.00 | 0.00 | 0.00 | 48 | 1015.9 | |
| 20260901114028 | 73 | 0.0 | 0.0 | 0.00 | 0.00 | 0.00 | 50 | 1015.8 | |
| 20260901113046 | 0 | 0.0 | 0.0 | 0.00 | 0.00 | 0.00 | |||
| 20260901112004 | 0 | 0.0 | 0.0 | 0.00 | 0.00 | 0.00 | |||
| 20260901111618 | 0 | 0.0 | 0.0 | 0.00 | 0.00 | 0.00 | |||
| 20260901111143 | 0 | 0.0 | 0.0 | 0.00 | 0.00 | 0.00 | |||
| 20260901110527 | 0 | 0.0 | 0.0 | 0.00 | 0.00 | 0.00 | |||
| 20260901105506 | 0 | 0.0 | 0.0 | 0.00 | 0.00 | 0.00 | |||
| 20260901105100 | 0 | 0.0 | 0.0 | 0.00 | 0.00 | 0.00 | |||
| 20260901104027 | 0 | 0.0 | 0.0 | 0.00 | 0.00 | 0.00 | |||
| 20260901103030 | 0 | 0.0 | 0.0 | 0.00 | 0.00 | 0.00 | |||
| 20260901102603 | 0 | 0.0 | 0.0 | 0.00 | 0.00 | 0.00 | |||
| 20260901102033 | 0 | 0.0 | 0.0 | 0.00 | 0.00 | 0.00 | |||
| 20260901101547 | 0 | 0.0 | 0.0 | 0.00 | 0.00 | 0.00 | |||
| 20260901100528 | 0 | 0.0 | 0.0 | 0.00 | 0.00 | 0.00 | |||
| 20260901100121 | 0 | 0.0 | 0.0 | 0.00 | 0.00 | 0.00 | |||
| 20260901095531 | 0 | 0.0 | 0.0 | 0.00 | 0.00 | 0.00 | |||
| 20260901095027 | 0 | 0.0 | 0.0 | 0.00 | 0.00 | 0.00 | |||
| 20260901094027 | 0 | 0.0 | 0.0 | 0.00 | 0.00 | 0.00 | |||
| 20260901093558 | 0 | 0.0 | 0.0 | 0.00 | 0.00 | 0.00 | |||
| 20260901093055 | 0 | 0.0 | 0.0 | 0.00 | 0.00 | 0.00 | |||
| 20260901092526 | 0 | 0.0 | 0.0 | 0.00 | 0.00 | 0.00 | |||
| 20260901091506 | 0 | 0.0 | 0.0 | 0.00 | 0.00 | 0.00 | |||
| 20260901091101 | 0 | 0.0 | 0.0 | 0.00 | 0.00 | 0.00 | |||
| 20260901090526 | 0 | 0.0 | 0.0 | 0.00 | 0.00 | 0.00 | |||
| 20260901090027 | 0 | 0.0 | 0.0 | 0.00 | 0.00 | 0.00 | |||
| 20260901085028 | 0 | 0.0 | 0.0 | 0.00 | 0.00 | 0.00 | |||
| 20260901084547 | 0 | 0.0 | 0.0 | 0.00 | 0.00 | 0.00 | |||
| 20260901083527 | 0 | 0.0 | 0.0 | 0.00 | 0.00 | 0.00 | |||
| 20260901082506 | 0 | 0.0 | 0.0 | 0.00 | 0.00 | 0.00 | |||
| 20260901082059 | 0 | 0.0 | 0.0 | 0.00 | 0.00 | 0.00 | |||
| 20260901081522 | 0 | 0.0 | 0.0 | 0.00 | 0.00 | 0.00 | |||
| 20260901081028 | 0 | 0.0 | 0.0 | 0.00 | 0.00 | 0.00 | |||
| 20260901080011 | 0 | 0.0 | 0.0 | 0.00 | 0.00 | 0.00 | |||
| 20260901075607 | 0 | 0.0 | 0.0 | 0.00 | 0.00 | 0.00 | |||
| 20260901074526 | 0 | 0.0 | 0.0 | 0.00 | 0.00 | 0.00 | |||
| 20260901073517 | 0 | 0.0 | 0.0 | 0.00 | 0.00 | 0.00 | |||
| 20260901073133 | 0 | 0.0 | 0.0 | 0.00 | 0.00 | 0.00 | |||
| 20260901072026 | 0 | 0.0 | 0.0 | 0.00 | 0.00 | 0.00 | |||
| 20260901071026 | 0 | 0.0 | 0.0 | 0.00 | 0.00 | 0.00 | |||
| 20260901070543 | 0 | 0.0 | 0.0 | 0.00 | 0.00 | 0.00 | 77 | ||
| 20260901070034 | 73 | 0.0 | 0.0 | 0.00 | 0.00 | 0.00 | 77 | 1015.9 | |
| 20260901065029 | 73 | 0.0 | 0.0 | 0.00 | 0.00 | 0.00 | 78 | 1015.9 | |
| 20260901064028 | 73 | 0.0 | 0.0 | 0.00 | 0.00 | 0.00 | 79 | 1016.0 | |
| 20260901063027 | 73 | 0.0 | 0.0 | 0.00 | 0.00 | 0.00 | 80 | 1016.0 | |
| 20260901062033 | 74 | 0.0 | 0.0 | 0.00 | 0.00 | 0.00 | 80 | 1016.1 | |
| 20260901061048 | 74 | 0.0 | 0.0 | 0.00 | 0.00 | 0.00 | 80 | 1016.2 | |
| 20260901060028 | 74 | 0.0 | 0.0 | 0.00 | 0.00 | 0.00 | 81 | 1016.4 | |
| 20260901055036 | 74 | 0.0 | 0.0 | 0.00 | 0.00 | 0.00 | 81 | 1016.5 | |
| 20260901054029 | 74 | 0.0 | 0.0 | 0.00 | 0.00 | 0.00 | 81 | 1016.5 | |
| 20260901053028 | 74 | 0.0 | 0.0 | 0.00 | 0.00 | 0.00 | 80 | 1016.5 | |
| 20260901052027 | 74 | 0.0 | 0.0 | 0.00 | 0.00 | 0.00 | 81 | 1016.6 | |
| 20260901051028 | 74 | 0.0 | 0.0 | 0.00 | 0.00 | 0.00 | 82 | 1016.7 | |
| 20260901050047 | 73 | 0.0 | 0.0 | 0.00 | 0.00 | 0.00 | 81 | 1016.7 | |
| 20260901045027 | 73 | 0.0 | 0.0 | 0.00 | 0.00 | 0.00 | 83 | 1016.9 | |
| 20260901044027 | 73 | 0.0 | 0.0 | 0.00 | 0.00 | 0.00 | 84 | 1016.9 | |
| 20260901043027 | 73 | 0.0 | 0.0 | 0.00 | 0.00 | 0.00 | 89 | 1016.9 | |
| 20260901042027 | 74 | 0.0 | 0.0 | 0.00 | 0.00 | 0.00 | 88 | 1016.9 | |
| 20260901041027 | 74 | 0.0 | 0.0 | 0.00 | 0.00 | 0.00 | 88 | 1016.9 | |
| 20260901040028 | 74 | 0.0 | 0.0 | 0.00 | 0.00 | 0.00 | 89 | 1017.0 | |
| 20260901035028 | 74 | 0.0 | 0.0 | 0.00 | 0.00 | 0.00 | 89 | 1017.0 | |
| 20260901034028 | 74 | 0.0 | 0.0 | 0.00 | 0.00 | 0.00 | 91 | 1016.9 | |
| 20260901033028 | 74 | 0.0 | 0.0 | 0.00 | 0.00 | 0.00 | 91 | 1016.8 | |
| 20260901032028 | 74 | 0.0 | 0.0 | 0.00 | 0.00 | 0.00 | 92 | 1016.8 | |
| 20260901031028 | 74 | 0.0 | 0.0 | 0.00 | 0.00 | 0.00 | 92 | 1016.8 | |
| 20260901030028 | 75 | 0.0 | 0.0 | 0.00 | 0.00 | 0.00 | 92 | 1016.7 | |
| 20260901025053 | 75 | 0.0 | 0.0 | 0.00 | 0.00 | 0.00 | 92 | 1016.8 | |
| 20260901024028 | 75 | 0.0 | 0.0 | 0.00 | 0.00 | 0.00 | 92 | 1016.7 | |
| 20260901023027 | 76 | 0.0 | 0.0 | 0.00 | 0.00 | 0.00 | 92 | 1016.7 | |
| 20260901022027 | 76 | 0.0 | 0.0 | 0.00 | 0.00 | 0.00 | 92 | 1016.7 | |
| 20260901021027 | 76 | 0.0 | 0.0 | 0.00 | 0.00 | 0.00 | 91 | 1016.7 | |
| 20260901020027 | 77 | 0.0 | 0.0 | 0.00 | 0.00 | 0.00 | 90 | 1016.7 | |
| 20260901015048 | 77 | 0.0 | 0.0 | 0.00 | 0.00 | 0.00 | 90 | 1016.9 | |
| 20260901014047 | 77 | 0.0 | 0.0 | 0.00 | 0.00 | 0.00 | 90 | 1016.7 | |
| 20260901013028 | 78 | 0.0 | 0.0 | 0.00 | 0.00 | 0.00 | 89 | 1016.7 | |
| 20260901012047 | 78 | 0.0 | 0.0 | 0.00 | 0.00 | 0.00 | 89 | 1016.5 | |
| 20260901011027 | 78 | 0.0 | 0.0 | 0.00 | 0.00 | 0.00 | 89 | 1016.4 | |
| 20260901010027 | 78 | 0.0 | 0.0 | 0.00 | 0.00 | 0.00 | 89 | 1016.5 | |
| 20260901005027 | 78 | 0.0 | 0.0 | 0.00 | 0.00 | 0.00 | 89 | 1016.4 | |
| 20260901004027 | 78 | 0.0 | 0.0 | 0.00 | 0.00 | 0.00 | 89 | 1016.3 | |
| 20260901003027 | 78 | 0.0 | 0.0 | 0.00 | 0.00 | 0.00 | 88 | 1016.3 | |
| 20260901002028 | 79 | 0.0 | 0.0 | 0.00 | 0.00 | 0.00 | 88 | 1016.3 | |
| 20260901001027 | 79 | 0.0 | 0.0 | 0.00 | 0.00 | 0.00 | 88 | 1016.2 | |
| 20260901000027 | 79 | 0.0 | 0.0 | 0.00 | 0.00 | 0.00 | 87 | 1016.3 | |
| 20260831235027 | 80 | 0.0 | 0.0 | 0.00 | 0.00 | 0.00 | 86 | 1016.2 | |
| 20260831234027 | 80 | 0.0 | 0.0 | 0.00 | 0.00 | 0.00 | 86 | 1016.2 | |
| 20260831233027 | 80 | 0.0 | 0.0 | 0.00 | 0.00 | 0.00 | 85 | 1016.4 | |
| 20260831232028 | 81 | 0.0 | 0.0 | 0.00 | 0.00 | 0.00 | 85 | 1016.5 | |
| 20260831231028 | 81 | 0.0 | 0.0 | 0.00 | 0.00 | 0.00 | 85 | 1016.5 | |
| 20260831230047 | 81 | 0.0 | 0.0 | 0.00 | 0.00 | 0.00 | 84 | 1016.6 | |
| 20260831225027 | 82 | 0.0 | 0.0 | 0.00 | 0.00 | 0.00 | 84 | 1016.6 | |
| 20260831224027 | 82 | 0.0 | 0.0 | 0.00 | 0.00 | 0.00 | 83 | 1016.6 | |
| 20260831223027 | 82 | 0.0 | 0.0 | 0.00 | 0.00 | 0.00 | 83 | 1016.7 | |
| 20260831222108 | 83 | 0.0 | 0.0 | 0.00 | 0.00 | 0.00 | 82 | 1016.7 | |
| 20260831221027 | 83 | 0.0 | 0.0 | 0.00 | 0.00 | 0.00 | 81 | 1016.7 | |
| 20260831220027 | 84 | 0.0 | 0.0 | 0.00 | 0.00 | 0.00 | 80 | 1016.8 | |
| 20260831215047 | 85 | 0.0 | 0.0 | 0.00 | 0.00 | 0.00 | 79 | 1016.7 | |
| 20260831214028 | 85 | 0.0 | 0.0 | 0.00 | 0.00 | 0.00 | 78 | 1016.6 | |
| 20260831213027 | 86 | 0.0 | 0.0 | 0.00 | 0.00 | 0.00 | 76 | 1016.5 | |
| 20260831212028 | 86 | 0.0 | 0.0 | 0.00 | 0.00 | 0.00 | 77 | 1016.5 | |
| 20260831211028 | 87 | 0.0 | 0.0 | 0.00 | 0.00 | 0.00 | 75 | 1016.5 | |
| 20260831210027 | 87 | 0.0 | 0.0 | 0.00 | 0.00 | 0.00 | 75 | 1016.5 | |
| 20260831205029 | 87 | 0.0 | 0.0 | 0.00 | 0.00 | 0.00 | 75 | 1016.4 | |
| 20260831204029 | 87 | 0.0 | 0.0 | 0.00 | 0.00 | 0.00 | 75 | 1016.5 | |
| 20260831203030 | 87 | 0.0 | 0.0 | 0.00 | 0.00 | 0.00 | 74 | 1016.5 | |
| 20260831202030 | 87 | 0.0 | 0.0 | 0.00 | 0.00 | 0.00 | 75 | 1016.5 |